Weather History for Madison, WI

Change the Weather History Date:

Tuesday, January 29, 2013

  Actual Average Record
Temperature  
Mean Temperature 45 °F 19 °F  
Max Temperature 54 °F 27 °F 54 °F (2013)
Min Temperature 35 °F 11 °F -26 °F (1951)
Degree Days  
Heating Degree Days 20 46  
Month to date heating degree days 1244 1343  
Since 1 July heating degree days 3839 4222  
Cooling Degree Days 0 0  
Month to date cooling degree days 0 0  
Year to date cooling degree days 0 0  
Moisture  
Dew Point 42 °F    
Average Humidity 92    
Maximum Humidity 100    
Minimum Humidity 83    
Precipitation  
Precipitation 1.84 in 0.04 in 1.84 in (2013)
Month to date precipitation 2.42 1.15  
Year to date precipitation 2.42 1.15  
Snow  
Snow 0.00 in 0.40 in 9.10 in (1909)
Month to date snowfall 2.8 12.0  
Since 1 July snowfall 26.3 29.6  
Snow Depth 0.00 in    
Sea Level Pressure  
Sea Level Pressure 29.59 in    
Wind  
Wind Speed 7 mph (South)    
Max Wind Speed 17 mph    
Max Gust Speed 24 mph    
Visibility 3 miles    
Events Fog , Rain , Thunderstorm    
T = Trace of Precipitation, MM = Missing Value Source: NWS Daily Summary

Daily Weather History Graph

Daily Weather History Graph

Search for Another Location

Airport:

Trip Planner

Search our weather history database for the weather conditions in past years. The results will help you decide how hot, cold, wet, or windy it might be!

Date:

Astronomy

Jan. 29, 2013 Rise Set
Actual Time 7:15 AM CST 5:06 PM CST
Civil Twilight 6:45 AM CST 5:36 PM CST
Nautical Twilight 6:10 AM CST 6:10 PM CST
Astronomical Twilight 5:37 AM CST 6:44 PM CST
Moon 8:08 PM CST (1/29) 8:06 AM CST (1/29)
Length of Visible Light 10h 51m
Length of Day
9h 50m
Waning Gibbous, 93% of the Moon is Illuminated
Jan 29
Waning Gibbous
Feb 3
Last Quarter
Feb 10
New
Feb 17
First Quarter
Feb 25
Full

Hourly Weather History & Observations

Time (CST) Temp. Windchill Dew Point Humidity Pressure Visibility Wind Dir Wind Speed Gust Speed Precip Events Conditions
12:07 AM 37.4 °F 32.1 °F 35.6 °F 93% 29.77 in 1.8 mi SSE 6.9 mph - 0.03 in Rain , Thunderstorm Light Thunderstorms and Rain
12:23 AM 37.4 °F 28.5 °F 35.6 °F 93% 29.72 in 3.0 mi ESE 15.0 mph - 0.10 in Rain , Thunderstorm Light Thunderstorms and Rain
12:53 AM 37.0 °F - 37.0 °F 100% 29.77 in 1.2 mi Calm Calm - 0.36 in Rain , Thunderstorm Heavy Thunderstorms and Rain
1:04 AM 37.4 °F 32.1 °F 35.6 °F 93% 29.73 in 3.0 mi ESE 6.9 mph - 0.07 in Rain , Thunderstorm Light Thunderstorms and Rain
1:18 AM 37.4 °F 34.9 °F 35.6 °F 93% 29.73 in 1.8 mi NNE 3.5 mph - 0.18 in Rain , Thunderstorm Heavy Thunderstorms and Rain
1:25 AM 37.4 °F 33.8 °F 35.6 °F 93% 29.75 in 3.0 mi West 4.6 mph - 0.20 in Rain , Thunderstorm Thunderstorms and Rain
1:35 AM 37.4 °F 33.8 °F 35.6 °F 93% 29.72 in 2.5 mi SE 4.6 mph - 0.26 in Rain , Thunderstorm Thunderstorms and Rain
1:45 AM 37.4 °F 31.4 °F 35.6 °F 93% 29.72 in 2.5 mi SE 8.1 mph - 0.33 in Rain , Thunderstorm Thunderstorms and Rain
1:47 AM 37.4 °F 31.4 °F 35.6 °F 93% 29.71 in 2.5 mi SE 8.1 mph - 0.33 in Rain Rain
1:53 AM 37.0 °F - 36.0 °F 96% 29.74 in 2.5 mi Calm Calm - 0.35 in Rain Rain
2:07 AM 37.4 °F 30.3 °F 35.6 °F 93% 29.70 in 6.0 mi SE 10.4 mph - 0.04 in Rain Light Rain
2:34 AM 39.2 °F 33.0 °F 37.4 °F 93% 29.70 in 4.0 mi SSE 9.2 mph - 0.10 in Rain Light Rain
2:53 AM 39.9 °F 33.9 °F 37.9 °F 93% 29.69 in 2.5 mi SE 9.2 mph - 0.14 in Rain Heavy Rain
3:01 AM 41.0 °F 34.7 °F 39.2 °F 93% 29.67 in 3.0 mi SSE 10.4 mph - 0.07 in Rain Rain
3:20 AM 39.2 °F 35.0 °F 39.2 °F 100% 29.66 in 4.0 mi SE 5.8 mph - 0.15 in Rain Light Rain
3:28 AM 39.2 °F 33.0 °F 39.2 °F 100% 29.66 in 10.0 mi SSE 9.2 mph - 0.15 in Rain Light Rain
3:53 AM 39.9 °F 37.8 °F 39.0 °F 97% 29.67 in 8.0 mi SSE 3.5 mph - 0.15 in   Overcast
4:05 AM 39.2 °F 34.2 °F 39.2 °F 100% 29.64 in 6.0 mi SSE 6.9 mph - 0.00 in Rain Light Rain
4:37 AM 41.0 °F 35.8 °F 39.2 °F 93% 29.61 in 1.8 mi SSE 8.1 mph - 0.03 in   Overcast
4:53 AM 41.0 °F 35.8 °F 39.9 °F 96% 29.63 in 0.8 mi SE 8.1 mph - 0.04 in   Overcast
5:53 AM 39.9 °F 37.8 °F 39.9 °F 100% 29.64 in 0.5 mi Variable 3.5 mph - 0.00 in Fog , Rain Light Rain
5:56 AM 39.2 °F - 39.2 °F 100% 29.62 in 0.5 mi Calm Calm - 0.00 in Fog , Rain , Thunderstorm Light Thunderstorms and Rain
6:26 AM 39.2 °F 34.2 °F 37.4 °F 93% 29.59 in 0.5 mi SSE 6.9 mph - 0.06 in Rain Light Rain
6:49 AM 39.2 °F 35.0 °F 39.2 °F 100% 29.59 in 1.0 mi South 5.8 mph - 0.08 in Rain Rain
6:53 AM 39.9 °F 35.1 °F 39.9 °F 100% 29.61 in 1.0 mi SSE 6.9 mph - 0.10 in Rain Rain
7:07 AM 41.0 °F 36.4 °F 41.0 °F 100% 29.58 in 2.0 mi South 6.9 mph - 0.01 in   Overcast
7:53 AM 43.0 °F 37.7 °F 42.1 °F 97% 29.60 in 1.0 mi South 9.2 mph - 0.04 in   Overcast
8:04 AM 44.6 °F 39.2 °F 42.8 °F 93% 29.57 in 1.0 mi South 10.4 mph - N/A   Overcast
8:08 AM 44.6 °F 40.7 °F 44.6 °F 100% 29.57 in 2.0 mi South 6.9 mph - N/A   Overcast
8:22 AM 46.4 °F 42.4 °F 46.4 °F 100% 29.56 in 1.2 mi South 8.1 mph - 0.01 in   Overcast
8:36 AM 46.4 °F 41.1 °F 46.4 °F 100% 29.55 in 0.5 mi South 11.5 mph - 0.01 in Fog Fog
8:53 AM 46.9 °F - 46.9 °F 100% 29.57 in 0.5 mi South 10.4 mph - 0.02 in Fog Fog
9:01 AM 46.4 °F 41.9 °F 46.4 °F 100% 29.56 in 0.2 mi South 9.2 mph - N/A Fog Fog
9:53 AM 46.9 °F - 46.0 °F 97% 29.55 in 0.2 mi South 4.6 mph - N/A Fog Fog
10:26 AM 48.2 °F - 48.2 °F 100% 29.54 in 0.8 mi South 4.6 mph - N/A   Mostly Cloudy
10:30 AM 50.0 °F - 48.2 °F 94% 29.54 in 1.0 mi South 6.9 mph - N/A   Mostly Cloudy
10:36 AM 50.0 °F - 48.2 °F 94% 29.55 in 2.0 mi South 5.8 mph - N/A   Scattered Clouds
10:45 AM 50.0 °F - 50.0 °F 100% 29.55 in 3.0 mi South 5.8 mph - 0.01 in   Scattered Clouds
10:53 AM 51.1 °F - 51.1 °F 100% 29.56 in 6.0 mi SSW 3.5 mph - 0.01 in   Scattered Clouds
11:10 AM 53.6 °F - 50.0 °F 88% 29.56 in 10.0 mi SSW 3.5 mph - N/A   Overcast
11:53 AM 53.1 °F - 48.9 °F 86% 29.55 in 10.0 mi South 6.9 mph - 0.01 in   Overcast
12:08 PM 51.8 °F - 48.2 °F 88% 29.53 in 10.0 mi South 6.9 mph - N/A   Overcast
12:42 PM 53.6 °F - 50.0 °F 88% 29.52 in 2.5 mi Calm Calm - 0.00 in Rain Light Rain
12:45 PM 53.6 °F - 50.0 °F 88% 29.52 in 2.0 mi Calm Calm - 0.00 in Rain Light Rain
12:53 PM 52.0 °F - 51.1 °F 97% 29.53 in 3.0 mi Calm Calm - 0.00 in Rain Light Rain
1:22 PM 51.8 °F - 50.0 °F 94% 29.52 in 3.0 mi Calm Calm - 0.00 in   Overcast
1:29 PM 51.8 °F - 51.8 °F 100% 29.52 in 1.5 mi SSW 3.5 mph - 0.00 in Rain , Thunderstorm Light Thunderstorms and Rain
1:41 PM 51.8 °F - 50.0 °F 94% 29.52 in 0.8 mi Variable 4.6 mph - 0.00 in Rain , Thunderstorm Light Thunderstorms and Rain
1:53 PM 51.1 °F - 51.1 °F 100% 29.53 in 1.0 mi SW 3.5 mph - 0.15 in Rain , Thunderstorm Light Thunderstorms and Rain
2:08 PM 51.8 °F - 50.0 °F 94% 29.52 in 1.0 mi West 8.1 mph 24.2 mph 0.05 in Rain , Thunderstorm Light Thunderstorms and Rain
2:44 PM 48.2 °F - 48.2 °F 100% 29.53 in 1.0 mi Calm Calm - 0.16 in Rain Rain
2:53 PM 48.9 °F - 48.0 °F 97% 29.54 in 1.0 mi Calm Calm - 0.18 in Rain Light Rain
2:58 PM 48.2 °F - 48.2 °F 100% 29.52 in 1.0 mi NW 5.8 mph - 0.00 in Rain Light Rain
3:31 PM 48.2 °F - 46.4 °F 93% 29.52 in 2.5 mi WNW 4.6 mph - 0.03 in Rain Light Rain
3:53 PM 46.9 °F - 46.0 °F 97% 29.51 in 3.0 mi NNW 6.9 mph - 0.03 in Rain Light Rain
4:16 PM 46.4 °F 45.2 °F 44.6 °F 93% 29.50 in 3.0 mi WNW 3.5 mph - 0.00 in Rain Light Rain
4:24 PM 46.4 °F 43.5 °F 44.6 °F 93% 29.50 in 2.0 mi NW 5.8 mph - 0.01 in Rain Light Rain
4:33 PM 46.4 °F 42.9 °F 44.6 °F 93% 29.50 in 2.0 mi NNW 6.9 mph - 0.01 in Rain Light Rain
4:53 PM 43.0 °F 36.8 °F 41.0 °F 93% 29.53 in 2.0 mi North 11.5 mph - 0.02 in Rain Light Rain
5:17 PM 41.0 °F 34.7 °F 39.2 °F 93% 29.52 in 2.0 mi North 10.4 mph - 0.00 in Rain Light Rain
5:29 PM 39.2 °F 32.0 °F 39.2 °F 100% 29.52 in 4.0 mi North 11.5 mph - 0.00 in Rain Light Rain
5:53 PM 39.0 °F 33.4 °F 37.9 °F 96% 29.53 in 4.0 mi North 8.1 mph - 0.02 in Rain Light Rain
6:35 PM 37.4 °F 30.8 °F 37.4 °F 100% 29.52 in 4.0 mi North 9.2 mph - 0.03 in Rain Light Rain
6:53 PM 37.9 °F 31.5 °F 36.0 °F 93% 29.54 in 4.0 mi North 9.2 mph - 0.04 in Rain Light Rain
7:53 PM 37.0 °F 31.0 °F 35.1 °F 93% 29.55 in 3.0 mi North 8.1 mph - 0.03 in Rain Light Rain
8:53 PM 36.0 °F 30.3 °F 34.0 °F 93% 29.53 in 3.0 mi North 6.9 mph - 0.01 in Rain Light Rain
9:53 PM 35.1 °F 27.4 °F 34.0 °F 96% 29.53 in 3.0 mi NNW 10.4 mph - 0.04 in Rain Light Rain
10:53 PM 35.1 °F 28.6 °F 33.1 °F 92% 29.50 in 3.0 mi NNW 8.1 mph - 0.04 in Rain Light Rain
11:53 PM 35.1 °F 26.9 °F 34.0 °F 96% 29.50 in 3.0 mi NNW 11.5 mph - 0.05 in Rain Light Rain